Regional Weather Roundup
Issued by NWS

Home | Current Version | Previous Version | Graphics & Text | Print | Product List | Glossary On
Versions: 1 2 3 4 5 6 7 8 9 10 11 12 13 14 15 16 17 18 19 20 21 22 23 24 25 26 27 28 29 30 31 32 33 34 35 36 37 38 39 40 41 42 43 44 45 46 47 48 49 50
000
ASUS43 KLOT 222106
RWRIL

ILLINOIS REGIONAL WEATHER ROUNDUP
NATIONAL WEATHER SERVICE CHICAGO/ROMEOVILLE IL
400 PM CDT WED OCT 22 2014

NOTE: "FAIR" INDICATES FEW OR NO CLOUDS BELOW 12,000 FEET WITH NO
SIGNIFICANT WEATHER AND/OR OBSTRUCTIONS TO VISIBILITY.

* THESE STATIONS ARE NOT UNDER NWS QUALITY CONTROL. THEY ALSO MAY NOT
  REPORT WEATHER SUCH AS PRECIPITATION OR FOG.

ILZ001-002-007-009-015-016-024-222200-
NORTHWEST ILLINOIS

CITY           SKY/WX    TMP DP  RH WIND       PRES   REMARKS
MOLINE         SUNNY     61  38  42 S8        30.24F
STERLING*      SUNNY     61  37  41 SE7       30.26F
SAVANNA*       SUNNY     61  33  35 SE7       30.25F
$$

ILZ003-004-008-010-011-017-018-222200-
NORTH CENTRAL ILLINOIS

CITY           SKY/WX    TMP DP  RH WIND       PRES   REMARKS
ROCKFORD       SUNNY     59  35  40 S8        30.28F
FREEPORT*      SUNNY     58  36  42 SE10      30.27F
ROCHELLE*      SUNNY     59  35  40 S7        30.27F
DE KALB*       SUNNY     56  37  49 SE5       30.28F
PERU*          SUNNY     60  36  40 E8        30.27F
$$

ILZ005-006-012>014-019>023-222200-
NORTHEAST ILLINOIS

CITY           SKY/WX    TMP DP  RH WIND       PRES   REMARKS
CHICAGO-OHARE  SUNNY     54  38  54 E8        30.29F
CHICAGO-MIDWAY MOSUNNY   54  36  50 E8        30.30F
AURORA         SUNNY     58  36  43 E6        30.29F
LANSING*       SUNNY     52  34  49 NE9       30.31S
JOLIET*        SUNNY     57  38  48 E5        30.28F
WAUKEGAN       SUNNY     49  39  68 E8        30.30F
DUPAGE AIRPORT SUNNY     59  37  44 CALM      30.27F
KANKAKEE*      SUNNY     57  34  42 CALM      30.29F
WHEELING       SUNNY     54  39  57 E9        30.32F
MORRIS*        SUNNY     59  39  46 SE5       30.27F
ROMEOVILLE*      N/A     56  36  45 CALM      30.29F HAZE
NORTHERLY ISL    N/A     50  37  61 NE7         N/A
$$

LMZ740>746-222200-
SOUTHERN LAKE MICHIGAN

STATION/POSITION SKY/WX   TEMP    WIND        PRES    VSBY  WAVE
                          AIR SEA DIR/SP/G                  HT/PER
                          (F)     (DEG/KT/KT) (MB)    (MI)  (FT/S)
SOUTHERN BUOY              47 55   10/  2/  4 1027.5F         1/ 4
WAUKEGAN HARBOR            50     110/  5/  7   N/A
HARRISON CRIB              47      70/  5/  6   N/A
BURNHAM HARBOR             50      70/  6/  8   N/A
CALUMET HARBOR             49      20/  6/  9 1025.3F
MICHIGAN CITY              48     360/ 10/ 12   N/A
$$

ILZ025>027-034>036-040-047-049-050-058-095>099-222200-
WEST-CENTRAL ILLINOIS

CITY           SKY/WX    TMP DP  RH WIND       PRES   REMARKS
QUINCY         SUNNY     62  39  42 VRB6      30.22F
GALESBURG*     SUNNY     59  38  45 SE6       30.24F
MACOMB*        SUNNY     61  39  44 S10       30.25F
JACKSONVILLE*  SUNNY     64  41  42 SE9       30.24F
PITTSFIELD*    SUNNY     64  42  44 SE7       30.24F
$$

ILZ028>032-037-038-041>044-048-051>054-059>061-222200-
CENTRAL ILLINOIS

CITY           SKY/WX    TMP DP  RH WIND       PRES   REMARKS
PONTIAC        SUNNY     59  33  38 S5        30.28F
BLOOMINGTON    SUNNY     60  38  44 SE6       30.27F
DECATUR        SUNNY     60  39  45 E5        30.27F
PEORIA         SUNNY     62  38  40 S7        30.26F
LACON*         SUNNY     60  36  40 S6        30.25F
LINCOLN*       SUNNY     62  36  38 E6        30.24F
SPRINGFIELD    SUNNY     62  39  42 E5        30.26F
TAYLORVILLE    SUNNY     59  37  44 SE7       30.25F
$$

ILZ033-039-045-046-055>057-062-063-222200-
EAST-CENTRAL ILLINOIS

CITY           SKY/WX    TMP DP  RH WIND       PRES   REMARKS
CHAMPAIGN      SUNNY     60  37  42 CALM      30.27F
DANVILLE*      SUNNY     58  37  46 E6        30.25S
RANTOUL*       SUNNY     60  34  36 E5        30.27F
MATTOON        SUNNY     60  38  43 E6        30.25F
PARIS*         SUNNY     60  40  47 NE3       30.27F
$$

ILZ079-100>102-222200-
SOUTHWEST ILLINOIS

CITY           SKY/WX    TMP DP  RH WIND       PRES   REMARKS
ALTON          SUNNY     63  36  36 E7        30.25F
BELLEVILLE     SUNNY     64  42  45 NE6       30.23F
CAHOKIA*       SUNNY     64  43  46 VRB5      30.24F
SPARTA*        SUNNY     62  42  46 NE5       30.25F HAZE
$$

ILZ064>066-069>071-074>076-080>082-084>086-088>090-092>094-222200-
SOUTH-CENTRAL ILLINOIS

CITY           SKY/WX    TMP DP  RH WIND       PRES   REMARKS
CARBONDALE     SUNNY     64  39  39 N6        30.23F
CAIRO*         SUNNY     67  41  37 N6        30.22F
EFFINGHAM*     SUNNY     62  34  35 NW3       30.26F
MARION         SUNNY     63  43  48 CALM      30.25F
MT. VERNON     SUNNY     61  43  51 NE7       30.26S
CENTRALIA*     SUNNY     62  37  39 E6        30.25F HAZE
SALEM*         SUNNY     64  41  44 CALM      30.25F
METROPOLIS*    SUNNY     64  42  44 CALM      30.21F
$$

ILZ067-068-072-073-078-083-087-091-222200-
SOUTHEAST ILLINOIS

CITY           SKY/WX    TMP DP  RH WIND       PRES   REMARKS
LAWRENCEVILLE  SUNNY     62  41  46 NE8       30.25F
FLORA*         HAZE      61  38  43 E6        30.26F VSB 1
FAIRFIELD*     SUNNY     62  39  42 NE6       30.24F HAZE
HARRISBURG*    SUNNY     62  41  46 NE6       30.25F
ROBINSON*      SUNNY     63  40  43 CALM      30.26F
CARMI*         SUNNY     64  42  44 NE7       30.24F
$$

ABBREVIATIONS USED IN REMARKS
   TC - TEMPERATURE IN CELSIUS
  WCI - WIND CHILL INDEX
   HX - HEAT INDEX
  VSB - VISIBILITY
$$




USA.gov is the U.S. government's official web portal to all federal, state and local government web resources and services.